START_TIME,STEP,MOV.,M15,t_acc.,M20,t_acc.
1979-07-26 18:00:43.210 ,0,1,0.,24.0,0.,24.0
1979-07-26 18:01:07.210 ,4,1,0.,24.0,0.,24.0
1979-07-26 18:01:31.210 ,7,1,0.,24.0,0.,24.0
1979-07-26 18:01:55.210 ,3,1,0.,24.0,0.,24.0
1979-07-26 18:02:19.210 ,0,1,0.,24.0,0.,24.0
1979-07-26 18:02:43.210 ,4,1,0.,24.0,0.,24.0
1979-07-26 18:03:07.210 ,7,1,0.,24.0,0.,24.0
1979-07-26 18:03:31.210 ,3,1,0.,24.0,0.,24.0
1979-07-26 18:03:55.210 ,0,1,0.,24.0,0.,24.0
1979-07-26 18:04:19.210 ,4,1,0.,24.0,0.,24.0
1979-07-26 18:04:43.210 ,7,1,0.,24.0,0.,24.0
1979-07-26 18:05:07.210 ,3,1,0.,24.0,0.,24.0
1979-07-26 18:05:31.210 ,0,1,0.,24.0,0.,24.0
1979-07-26 18:05:55.210 ,0,0,0.,24.0,0.,24.0
1979-07-26 18:06:19.210 ,0,0,0.,24.0,0.,24.0
1979-07-26 18:06:43.210 ,5,1,0.,24.0,0.,24.0
1979-07-26 18:07:07.210 ,5,0,0.,24.0,0.,24.0
1979-07-26 18:07:31.210 ,4,1,0.,24.0,0.,24.0
1979-07-26 18:07:55.210 ,4,0,0.,24.0,0.,24.0
1979-07-26 18:08:19.210 ,3,1,0.,24.0,0.,24.0
1979-07-26 18:08:43.210 ,3,0,0.,24.0,0.,24.0
1979-07-26 18:09:07.210 ,2,1,0.,24.0,0.,24.0
1979-07-26 18:09:31.210 ,2,0,0.,24.0,0.,24.0
1979-07-26 18:09:55.210 ,1,1,0.,24.0,0.,24.0
1979-07-26 18:10:19.210 ,1,0,0.,24.0,0.,24.0
1979-07-26 18:10:43.210 ,0,1,0.,24.0,0.,24.0
1979-07-26 18:11:07.210 ,0,0,0.,24.0,0.,24.0
1979-07-26 18:11:31.210 ,0,1,0.,24.0,0.,24.0
1979-07-26 18:11:55.210 ,0,0,0.,24.0,0.,24.0
1979-07-26 18:12:19.210 ,1,1,0.,24.0,0.,24.0
1979-07-26 18:12:43.210 ,1,0,0.,24.0,0.,24.0
1979-07-26 18:13:07.210 ,2,1,0.,24.0,0.,24.0
1979-07-26 18:13:31.210 ,2,0,0.,24.0,0.,24.0
1979-07-26 18:13:55.210 ,3,1,0.,24.0,0.,24.0
1979-07-26 18:14:19.210 ,3,0,0.,24.0,0.,24.0
1979-07-26 18:14:43.210 ,4,1,0.,24.0,0.,24.0
1979-07-26 18:15:07.210 ,4,0,0.,24.0,0.,24.0
1979-07-26 18:15:31.210 ,5,1,0.,24.0,0.,24.0
1979-07-26 18:15:55.210 ,5,0,0.,24.0,0.,24.0
1979-07-26 18:16:19.210 ,6,1,0.,24.0,0.,24.0
1979-07-26 18:16:43.210 ,6,0,0.,24.0,0.,24.0
1979-07-26 18:17:07.210 ,7,1,0.,24.0,0.,24.0
1979-07-26 18:17:31.210 ,7,0,0.,24.0,0.,24.0
1979-07-26 18:17:55.210 ,7,1,0.,24.0,0.,24.0
1979-07-26 18:18:19.210 ,7,0,0.,24.0,0.,24.0
1979-07-26 18:18:43.210 ,6,1,0.,24.0,0.,24.0
1979-07-26 18:19:07.210 ,6,0,0.,24.0,0.,24.0
1979-07-26 18:19:31.210 ,5,1,0.,24.0,0.,24.0
1979-07-26 18:19:55.210 ,5,0,0.,24.0,0.,24.0
1979-07-26 18:20:19.210 ,4,1,0.,24.0,0.,24.0
1979-07-26 18:20:43.210 ,4,0,0.,24.0,0.,24.0
1979-07-26 18:21:07.210 ,3,1,0.,24.0,0.,24.0
1979-07-26 18:21:31.210 ,3,0,0.,24.0,0.,24.0
1979-07-26 18:21:55.210 ,2,1,0.,24.0,0.,24.0
1979-07-26 18:22:19.210 ,2,0,0.,24.0,0.,24.0
1979-07-26 18:22:43.210 ,1,1,0.,24.0,0.,24.0
1979-07-26 18:23:07.210 ,1,0,0.,24.0,0.,24.0
1979-07-26 18:23:31.210 ,0,1,0.,24.0,0.,24.0
1979-07-26 18:23:55.210 ,0,0,0.,24.0,0.,24.0
1979-07-26 18:24:19.210 ,0,1,0.,24.0,0.,24.0
1979-07-26 18:24:43.210 ,0,0,0.,24.0,0.,24.0
1979-07-26 18:25:07.210 ,1,1,0.,24.0,0.,24.0
1979-07-26 18:25:31.210 ,1,0,0.,24.0,0.,24.0
1979-07-26 18:25:55.210 ,2,1,0.,24.0,0.,24.0
1979-07-26 18:26:19.210 ,2,0,0.,24.0,0.,24.0
1979-07-26 18:26:43.210 ,3,1,0.,24.0,0.,24.0
1979-07-26 18:27:07.210 ,3,0,0.,24.0,0.,24.0
1979-07-26 18:27:31.210 ,4,1,0.,24.0,0.,24.0
1979-07-26 18:27:55.210 ,4,0,0.,24.0,0.,24.0
1979-07-26 18:28:19.210 ,5,1,0.,24.0,0.,24.0
1979-07-26 18:28:43.210 ,5,0,0.,24.0,0.,24.0
1979-07-26 18:29:07.210 ,6,1,0.,24.0,0.,24.0
1979-07-26 18:29:31.210 ,6,0,0.,24.0,0.,24.0
1979-07-26 18:29:55.210 ,7,1,0.,24.0,0.,24.0
1979-07-26 18:30:19.210 ,7,0,0.,24.0,0.,24.0
1979-07-26 18:30:43.210 ,7,1,0.,24.0,0.,24.0
1979-07-26 18:31:07.210 ,7,0,0.,24.0,0.,24.0
1979-07-26 18:31:31.210 ,6,1,0.,24.0,0.,24.0
1979-07-26 18:31:55.210 ,6,0,0.,24.0,0.,24.0
1979-07-26 18:32:19.210 ,5,1,0.,24.0,0.,24.0
1979-07-26 18:32:43.210 ,5,0,0.,24.0,0.,24.0
1979-07-26 18:33:07.210 ,4,1,0.,24.0,0.,24.0
1979-07-26 18:33:31.210 ,4,0,0.,24.0,0.,24.0
1979-07-26 18:33:55.210 ,3,1,0.,24.0,0.,24.0
1979-07-26 18:34:19.210 ,3,0,0.,24.0,0.,24.0
1979-07-26 18:34:43.210 ,2,1,0.,24.0,0.,24.0
1979-07-26 18:35:07.210 ,2,0,0.,24.0,0.,24.0
1979-07-26 18:35:31.210 ,1,1,0.,24.0,0.,24.0
1979-07-26 18:35:55.210 ,1,0,0.,24.0,0.,24.0
1979-07-26 18:36:19.210 ,0,1,0.,24.0,0.,24.0
1979-07-26 18:36:43.210 ,0,0,0.,24.0,0.,24.0
1979-07-26 18:37:07.210 ,0,1,0.,24.0,0.,24.0
1979-07-26 18:37:31.210 ,0,0,0.,24.0,0.,24.0
1979-07-26 18:37:55.210 ,1,1,0.,24.0,0.,24.0
1979-07-26 18:38:19.210 ,1,0,0.,24.0,0.,24.0
1979-07-26 18:38:43.210 ,2,1,0.,24.0,0.,24.0
1979-07-26 18:39:07.210 ,2,0,0.,24.0,0.,24.0
1979-07-26 18:39:31.210 ,3,1,0.,24.0,0.,24.0
1979-07-26 18:39:55.210 ,3,0,1.,24.0,0.,24.0
1979-07-26 18:40:19.210 ,4,1,0.,24.0,0.,24.0
1979-07-26 18:40:43.210 ,4,0,0.,24.0,0.,24.0
1979-07-26 18:41:07.210 ,5,1,0.,24.0,0.,24.0
1979-07-26 18:41:31.210 ,5,0,0.,24.0,0.,24.0
1979-07-26 18:41:55.210 ,6,1,0.,24.0,0.,24.0
1979-07-26 18:42:19.210 ,6,0,0.,24.0,0.,24.0
1979-07-26 18:42:43.210 ,7,0,0.,24.0,0.,24.0
1979-07-26 18:43:07.210 ,7,0,0.,24.0,0.,24.0
1979-07-26 18:43:31.210 ,3,1,0.,24.0,0.,24.0
1979-07-26 18:43:55.210 ,0,1,0.,24.0,0.,24.0
1979-07-26 18:44:19.210 ,4,1,0.,24.0,0.,24.0
1979-07-26 18:44:43.210 ,7,1,0.,24.0,0.,24.0
1979-07-26 18:45:07.210 ,3,1,0.,24.0,0.,24.0
1979-07-26 18:45:31.210 ,0,1,0.,24.0,0.,24.0
1979-07-26 18:45:55.210 ,4,1,0.,24.0,0.,24.0
1979-07-26 18:46:19.210 ,7,1,0.,24.0,0.,24.0
1979-07-26 18:46:43.210 ,3,1,0.,24.0,0.,24.0
1979-07-26 18:47:07.210 ,0,1,0.,24.0,0.,24.0
1979-07-26 18:47:31.210 ,4,1,0.,24.0,0.,24.0
1979-07-26 18:47:55.210 ,7,1,0.,24.0,0.,24.0
1979-07-26 18:48:19.210 ,3,1,0.,24.0,0.,24.0
1979-07-26 18:48:43.210 ,0,0,,0,,0
1979-07-26 18:49:07.210 ,0,0,,0,,0
1979-07-26 18:49:31.210 ,0,0,,0,,0
1979-07-26 18:50:26.410 ,0,0,0.,24.0,0.,24.0
1979-07-26 18:50:43.210 ,4,1,0.,24.0,0.,24.0
1979-07-26 18:51:07.210 ,7,1,0.,24.0,0.,24.0
1979-07-26 18:51:31.210 ,3,1,0.,24.0,0.,24.0
1979-07-26 18:51:55.210 ,0,1,0.,24.0,0.,24.0
1979-07-26 18:52:19.210 ,4,1,0.,24.0,0.,24.0
1979-07-26 18:52:43.210 ,7,1,0.,24.0,0.,24.0
1979-07-26 18:53:07.210 ,3,1,0.,24.0,0.,24.0
1979-07-26 18:53:31.210 ,0,1,0.,24.0,0.,24.0
1979-07-26 18:53:55.210 ,0,0,0.,24.0,0.,24.0
1979-07-26 18:54:19.210 ,0,0,0.,24.0,0.,24.0
1979-07-26 18:54:43.210 ,5,1,0.,24.0,0.,24.0
1979-07-26 18:55:07.210 ,5,0,0.,24.0,0.,24.0
1979-07-26 18:55:31.210 ,4,1,0.,24.0,0.,24.0
1979-07-26 18:55:55.210 ,4,0,0.,24.0,0.,24.0
1979-07-26 18:56:19.210 ,3,1,0.,24.0,0.,24.0
1979-07-26 18:56:43.210 ,3,0,0.,24.0,0.,24.0
1979-07-26 18:57:07.210 ,2,1,0.,24.0,0.,24.0
1979-07-26 18:57:31.210 ,2,0,0.,24.0,0.,24.0
1979-07-26 18:57:55.210 ,1,1,0.,24.0,0.,24.0
1979-07-26 18:58:19.210 ,1,0,0.,24.0,0.,24.0
1979-07-26 18:58:43.210 ,0,1,0.,24.0,0.,24.0
1979-07-26 18:59:07.210 ,0,0,0.,24.0,0.,24.0
1979-07-26 18:59:31.210 ,0,1,0.,24.0,0.,24.0
1979-07-26 18:59:55.210 ,0,0,0.,24.0,0.,24.0
1979-07-26 19:00:19.210 ,1,1,0.,24.0,0.,24.0
1979-07-26 19:00:43.210 ,1,0,0.,24.0,0.,24.0
1979-07-26 19:01:07.210 ,2,1,0.,24.0,0.,24.0
1979-07-26 19:01:31.210 ,2,0,0.,24.0,0.,24.0
1979-07-26 19:01:55.210 ,3,1,0.,24.0,0.,24.0
1979-07-26 19:02:19.210 ,3,0,0.,24.0,0.,24.0
1979-07-26 19:02:43.210 ,4,1,0.,24.0,0.,24.0
1979-07-26 19:03:07.210 ,4,0,0.,24.0,0.,24.0
1979-07-26 19:03:31.210 ,5,1,0.,24.0,0.,24.0
1979-07-26 19:03:55.210 ,5,0,0.,24.0,0.,24.0
1979-07-26 19:04:19.210 ,6,1,0.,24.0,0.,24.0
1979-07-26 19:04:43.210 ,6,0,0.,24.0,0.,24.0
1979-07-26 19:05:07.210 ,7,1,0.,24.0,0.,24.0
1979-07-26 19:05:31.210 ,7,0,0.,24.0,0.,24.0
1979-07-26 19:05:55.210 ,7,1,0.,24.0,0.,24.0
1979-07-26 19:06:19.210 ,7,0,0.,24.0,0.,24.0
1979-07-26 19:06:43.210 ,6,1,0.,24.0,0.,24.0
1979-07-26 19:07:07.210 ,6,0,0.,24.0,0.,24.0
1979-07-26 19:07:31.210 ,5,1,0.,24.0,0.,24.0
1979-07-26 19:07:55.210 ,5,0,0.,24.0,0.,24.0
1979-07-26 19:08:19.210 ,4,1,0.,24.0,0.,24.0
1979-07-26 19:08:43.210 ,4,0,0.,24.0,0.,24.0
1979-07-26 19:09:07.210 ,3,1,0.,24.0,0.,24.0
1979-07-26 19:09:31.210 ,3,0,0.,24.0,0.,24.0
1979-07-26 19:09:55.210 ,2,1,0.,24.0,0.,24.0
1979-07-26 19:10:19.210 ,2,0,0.,24.0,0.,24.0
1979-07-26 19:10:43.210 ,1,1,0.,24.0,0.,24.0
1979-07-26 19:11:07.210 ,1,0,0.,24.0,0.,24.0
1979-07-26 19:11:31.210 ,0,1,0.,24.0,0.,24.0
1979-07-26 19:11:55.210 ,0,0,0.,24.0,0.,24.0
1979-07-26 19:12:19.210 ,0,1,0.,24.0,0.,24.0
1979-07-26 19:12:43.210 ,0,0,0.,24.0,0.,24.0
1979-07-26 19:13:07.210 ,1,1,0.,24.0,0.,24.0
1979-07-26 19:13:31.210 ,1,0,0.,24.0,0.,24.0
1979-07-26 19:13:55.210 ,2,1,0.,24.0,0.,24.0
1979-07-26 19:14:19.210 ,2,0,0.,24.0,0.,24.0
1979-07-26 19:14:43.210 ,3,1,0.,24.0,0.,24.0
1979-07-26 19:15:07.210 ,3,0,0.,24.0,0.,24.0
1979-07-26 19:15:31.210 ,4,1,0.,24.0,0.,24.0
1979-07-26 19:15:55.210 ,4,0,0.,24.0,0.,24.0
1979-07-26 19:16:19.210 ,5,1,0.,24.0,0.,24.0
1979-07-26 19:16:43.210 ,5,0,0.,24.0,0.,24.0
1979-07-26 19:17:07.210 ,6,1,0.,24.0,0.,24.0
1979-07-26 19:17:31.210 ,6,0,0.,24.0,0.,24.0
1979-07-26 19:17:55.210 ,7,1,0.,24.0,0.,24.0
1979-07-26 19:18:19.210 ,7,0,0.,24.0,0.,24.0
1979-07-26 19:18:43.210 ,7,1,0.,24.0,0.,24.0
1979-07-26 19:19:07.210 ,7,0,0.,24.0,0.,24.0
1979-07-26 19:19:31.210 ,6,1,0.,24.0,0.,24.0
1979-07-26 19:19:55.210 ,6,0,0.,24.0,0.,24.0
1979-07-26 19:20:19.210 ,5,1,0.,24.0,0.,24.0
1979-07-26 19:20:43.210 ,5,0,0.,24.0,0.,24.0
1979-07-26 19:21:07.210 ,4,1,0.,24.0,0.,24.0
1979-07-26 19:21:31.210 ,4,0,0.,24.0,0.,24.0
1979-07-26 19:21:55.210 ,3,1,0.,24.0,0.,24.0
1979-07-26 19:22:19.210 ,3,0,0.,24.0,0.,24.0
1979-07-26 19:22:43.210 ,2,1,0.,24.0,0.,24.0
1979-07-26 19:23:07.210 ,2,0,0.,24.0,0.,24.0
1979-07-26 19:23:31.210 ,1,1,0.,24.0,0.,24.0
1979-07-26 19:23:55.210 ,1,0,0.,24.0,0.,24.0
1979-07-26 19:24:19.210 ,0,1,0.,24.0,0.,24.0
1979-07-26 19:24:43.210 ,0,0,0.,24.0,0.,24.0
1979-07-26 19:25:07.210 ,0,1,1.,24.0,0.,24.0
1979-07-26 19:25:31.210 ,0,0,0.,24.0,0.,24.0
1979-07-26 19:25:55.210 ,1,1,0.,24.0,0.,24.0
1979-07-26 19:26:19.210 ,1,0,0.,24.0,0.,24.0
1979-07-26 19:26:43.210 ,2,1,0.,24.0,0.,24.0
1979-07-26 19:27:07.210 ,2,0,0.,24.0,0.,24.0
1979-07-26 19:27:31.210 ,3,1,0.,24.0,0.,24.0
1979-07-26 19:27:55.210 ,3,0,0.,24.0,0.,24.0
1979-07-26 19:28:19.210 ,4,1,0.,24.0,0.,24.0
1979-07-26 19:28:43.210 ,4,0,0.,24.0,0.,24.0
1979-07-26 19:29:07.210 ,5,1,0.,24.0,0.,24.0
1979-07-26 19:29:31.210 ,5,0,0.,24.0,0.,24.0
1979-07-26 19:29:55.210 ,6,1,0.,24.0,0.,24.0
1979-07-26 19:30:19.210 ,6,0,0.,24.0,0.,24.0
1979-07-26 19:30:43.210 ,7,0,0.,24.0,0.,24.0
1979-07-26 19:31:07.210 ,7,0,0.,24.0,0.,24.0
1979-07-26 19:31:31.210 ,3,1,0.,24.0,0.,24.0
1979-07-26 19:31:55.210 ,0,1,0.,24.0,0.,24.0
1979-07-26 19:32:19.210 ,4,1,0.,24.0,0.,24.0
1979-07-26 19:32:43.210 ,7,1,0.,24.0,0.,24.0
1979-07-26 19:33:07.210 ,3,1,0.,24.0,0.,24.0
1979-07-26 19:33:31.210 ,0,1,0.,24.0,0.,24.0
1979-07-26 19:33:55.210 ,4,1,0.,24.0,0.,24.0
1979-07-26 19:34:19.210 ,7,1,0.,24.0,0.,24.0
1979-07-26 19:34:43.210 ,3,1,0.,24.0,0.,24.0
1979-07-26 19:35:07.210 ,0,1,0.,24.0,0.,24.0
1979-07-26 19:35:31.210 ,4,1,0.,24.0,0.,24.0
1979-07-26 19:35:55.210 ,7,1,0.,24.0,0.,24.0
1979-07-26 19:36:19.210 ,3,1,0.,24.0,0.,24.0
1979-07-26 19:36:43.210 ,0,1,0.,24.0,0.,24.0
1979-07-26 19:37:07.210 ,4,1,0.,24.0,0.,24.0
1979-07-26 19:37:31.210 ,7,1,0.,24.0,0.,24.0
1979-07-26 19:37:55.210 ,3,1,0.,24.0,0.,24.0
1979-07-26 19:38:19.210 ,0,1,0.,24.0,0.,24.0
1979-07-26 19:38:43.210 ,4,1,0.,24.0,0.,24.0
1979-07-26 19:39:07.210 ,7,1,0.,24.0,0.,24.0
1979-07-26 19:39:31.210 ,3,1,0.,24.0,0.,24.0
1979-07-26 19:39:55.210 ,0,1,0.,24.0,0.,24.0
1979-07-26 19:40:19.210 ,4,1,0.,24.0,0.,24.0
1979-07-26 19:40:43.210 ,7,1,0.,24.0,0.,24.0
1979-07-26 19:41:07.210 ,3,1,0.,24.0,0.,24.0
1979-07-26 19:41:31.210 ,0,1,0.,24.0,0.,24.0
1979-07-26 19:41:55.210 ,0,0,0.,24.0,0.,24.0
1979-07-26 19:42:19.210 ,0,0,0.,24.0,0.,24.0
1979-07-26 19:42:43.210 ,5,1,0.,24.0,0.,24.0
1979-07-26 19:43:07.210 ,5,0,0.,24.0,0.,24.0
1979-07-26 19:43:31.210 ,4,1,0.,24.0,0.,24.0
1979-07-26 19:43:55.210 ,4,0,0.,24.0,0.,24.0
1979-07-26 19:44:19.210 ,3,1,0.,24.0,0.,24.0
1979-07-26 19:44:43.210 ,3,0,0.,24.0,0.,24.0
1979-07-26 19:45:07.210 ,2,1,0.,24.0,0.,24.0
1979-07-26 19:45:31.210 ,2,0,0.,24.0,0.,24.0
1979-07-26 19:45:55.210 ,1,1,0.,24.0,0.,24.0
1979-07-26 19:46:19.210 ,1,0,0.,24.0,0.,24.0
1979-07-26 19:46:43.210 ,0,1,0.,24.0,0.,24.0
1979-07-26 19:47:07.210 ,0,0,0.,24.0,0.,24.0
1979-07-26 19:47:31.210 ,0,1,0.,24.0,0.,24.0
1979-07-26 19:47:55.210 ,0,0,0.,24.0,0.,24.0
1979-07-26 19:48:19.210 ,1,1,0.,24.0,0.,24.0
1979-07-26 19:48:43.210 ,1,0,0.,24.0,0.,24.0
1979-07-26 19:49:07.210 ,2,1,0.,24.0,0.,24.0
1979-07-26 19:49:31.210 ,2,0,0.,24.0,0.,24.0
1979-07-26 19:49:55.210 ,3,1,0.,24.0,0.,24.0
1979-07-26 19:50:19.210 ,3,0,0.,24.0,0.,24.0
1979-07-26 19:50:43.210 ,4,1,0.,24.0,0.,24.0
1979-07-26 19:51:07.210 ,4,0,0.,24.0,0.,24.0
1979-07-26 19:51:31.210 ,5,1,0.,24.0,0.,24.0
1979-07-26 19:51:55.210 ,5,0,0.,24.0,0.,24.0
1979-07-26 19:52:19.210 ,6,1,0.,24.0,0.,24.0
1979-07-26 19:52:43.210 ,6,0,0.,24.0,0.,24.0
1979-07-26 19:53:07.210 ,7,1,0.,24.0,0.,24.0
1979-07-26 19:53:31.210 ,7,0,0.,24.0,0.,24.0
1979-07-26 19:53:55.210 ,7,1,0.,24.0,0.,24.0
1979-07-26 19:54:19.210 ,7,0,0.,24.0,0.,24.0
1979-07-26 19:54:43.210 ,6,1,0.,24.0,0.,24.0
1979-07-26 19:55:07.210 ,6,0,0.,24.0,0.,24.0
1979-07-26 19:55:31.210 ,5,1,0.,24.0,0.,24.0
1979-07-26 19:55:55.210 ,5,0,0.,24.0,0.,24.0
1979-07-26 19:56:19.210 ,4,1,0.,24.0,0.,24.0
1979-07-26 19:56:43.210 ,4,0,0.,24.0,0.,24.0
1979-07-26 19:57:07.210 ,3,1,0.,24.0,0.,24.0
1979-07-26 19:57:31.210 ,3,0,0.,24.0,0.,24.0
1979-07-26 19:57:55.210 ,2,1,0.,24.0,0.,24.0
1979-07-26 19:58:19.210 ,2,0,0.,24.0,0.,24.0
1979-07-26 19:58:43.210 ,1,1,0.,24.0,0.,24.0
1979-07-26 19:59:07.210 ,1,0,0.,24.0,0.,24.0
1979-07-26 19:59:31.210 ,0,1,0.,24.0,0.,24.0
1979-07-26 19:59:55.210 ,0,0,0.,24.0,0.,24.0
1979-07-26 20:00:19.210 ,0,1,0.,24.0,0.,24.0
1979-07-26 20:00:43.210 ,0,0,0.,24.0,0.,24.0
1979-07-26 20:01:07.210 ,1,1,0.,24.0,0.,24.0
1979-07-26 20:01:31.210 ,1,0,0.,24.0,0.,24.0
1979-07-26 20:01:55.210 ,2,1,0.,24.0,0.,24.0
1979-07-26 20:02:19.210 ,2,0,0.,24.0,0.,24.0
1979-07-26 20:02:43.210 ,3,1,0.,24.0,0.,24.0
1979-07-26 20:03:07.210 ,3,0,0.,24.0,0.,24.0
1979-07-26 20:03:31.210 ,4,1,0.,24.0,0.,24.0
1979-07-26 20:03:55.210 ,4,0,0.,24.0,0.,24.0
1979-07-26 20:04:19.210 ,5,1,0.,24.0,0.,24.0
1979-07-26 20:04:43.210 ,5,0,0.,24.0,0.,24.0
1979-07-26 20:05:07.210 ,6,1,0.,24.0,0.,24.0
1979-07-26 20:05:31.210 ,6,0,0.,24.0,0.,24.0
1979-07-26 20:05:55.210 ,7,1,0.,24.0,0.,24.0
1979-07-26 20:06:19.210 ,7,0,0.,24.0,0.,24.0
1979-07-26 20:06:43.210 ,7,1,0.,24.0,0.,24.0
1979-07-26 20:07:07.210 ,7,0,0.,24.0,0.,24.0
1979-07-26 20:07:31.210 ,6,1,0.,24.0,0.,24.0
1979-07-26 20:07:55.210 ,6,0,0.,24.0,0.,24.0
1979-07-26 20:08:19.210 ,5,1,0.,24.0,0.,24.0
1979-07-26 20:08:43.210 ,5,0,0.,24.0,0.,24.0
1979-07-26 20:09:07.210 ,4,1,0.,24.0,0.,24.0
1979-07-26 20:09:31.210 ,4,0,0.,24.0,0.,24.0
1979-07-26 20:09:55.210 ,3,1,0.,24.0,0.,24.0
1979-07-26 20:10:19.210 ,3,0,0.,24.0,0.,24.0
1979-07-26 20:10:43.210 ,2,1,0.,24.0,0.,24.0
1979-07-26 20:11:07.210 ,2,0,0.,24.0,0.,24.0
1979-07-26 20:11:31.210 ,1,1,0.,24.0,0.,24.0
1979-07-26 20:11:55.210 ,1,0,0.,24.0,0.,24.0
1979-07-26 20:12:19.210 ,0,1,0.,24.0,0.,24.0
1979-07-26 20:12:43.210 ,0,0,0.,24.0,0.,24.0
1979-07-26 20:13:07.210 ,0,1,0.,24.0,0.,24.0
1979-07-26 20:13:31.210 ,0,0,0.,24.0,0.,24.0
1979-07-26 20:13:55.210 ,1,1,0.,24.0,0.,24.0
1979-07-26 20:14:19.210 ,1,0,0.,24.0,0.,24.0
1979-07-26 20:14:43.210 ,2,1,0.,24.0,0.,24.0
1979-07-26 20:15:07.210 ,2,0,0.,24.0,0.,24.0
1979-07-26 20:15:31.210 ,3,1,0.,24.0,0.,24.0
1979-07-26 20:15:55.210 ,3,0,0.,24.0,0.,24.0
1979-07-26 20:16:19.210 ,4,1,0.,24.0,0.,24.0
1979-07-26 20:16:43.210 ,4,0,0.,24.0,0.,24.0
1979-07-26 20:17:07.210 ,5,1,0.,24.0,0.,24.0
1979-07-26 20:17:31.210 ,5,0,0.,24.0,0.,24.0
1979-07-26 20:17:55.210 ,6,1,0.,24.0,0.,24.0
1979-07-26 20:18:19.210 ,6,0,0.,24.0,0.,24.0
1979-07-26 20:18:43.210 ,7,0,0.,24.0,0.,24.0
1979-07-26 20:19:07.210 ,7,0,0.,24.0,0.,24.0
1979-07-26 20:19:31.210 ,3,1,0.,24.0,0.,24.0
1979-07-26 20:19:55.210 ,0,1,0.,24.0,0.,24.0
1979-07-26 20:20:19.210 ,4,1,0.,24.0,0.,24.0
1979-07-26 20:20:43.210 ,7,1,0.,24.0,0.,24.0
1979-07-26 20:21:07.210 ,3,1,0.,24.0,0.,24.0
1979-07-26 20:21:31.210 ,0,1,0.,24.0,0.,24.0
1979-07-26 20:21:55.210 ,4,1,0.,24.0,0.,24.0
1979-07-26 20:22:19.210 ,7,1,0.,24.0,0.,24.0
1979-07-26 20:22:43.210 ,3,1,0.,24.0,0.,24.0
1979-07-26 20:23:07.210 ,0,1,0.,24.0,0.,24.0
1979-07-26 20:23:31.210 ,4,1,0.,24.0,0.,24.0
1979-07-26 20:23:55.210 ,7,1,0.,24.0,0.,24.0
1979-07-26 20:24:19.210 ,3,1,0.,24.0,0.,24.0
1979-07-26 20:24:43.210 ,0,1,0.,24.0,0.,24.0
1979-07-26 20:25:07.210 ,4,1,0.,24.0,0.,24.0
1979-07-26 20:25:31.210 ,7,1,0.,24.0,0.,24.0
1979-07-26 20:25:55.210 ,3,1,0.,24.0,0.,24.0
1979-07-26 20:26:19.210 ,0,1,0.,24.0,0.,24.0
1979-07-26 20:26:43.210 ,4,1,0.,24.0,0.,24.0
1979-07-26 20:27:07.210 ,7,1,0.,24.0,0.,24.0
1979-07-26 20:27:31.210 ,3,1,0.,24.0,0.,24.0
1979-07-26 20:27:55.210 ,0,1,0.,24.0,0.,24.0
1979-07-26 20:28:19.210 ,4,1,0.,24.0,0.,24.0
1979-07-26 20:28:43.210 ,7,1,0.,24.0,0.,24.0
1979-07-26 20:29:07.210 ,3,1,0.,24.0,0.,24.0
1979-07-26 20:29:31.210 ,0,1,0.,24.0,0.,24.0
1979-07-26 20:29:55.210 ,0,0,0.,24.0,0.,24.0
1979-07-26 20:30:19.210 ,0,0,0.,24.0,0.,24.0
1979-07-26 20:30:43.210 ,5,1,0.,24.0,0.,24.0
1979-07-26 20:31:07.210 ,5,0,0.,24.0,0.,24.0
1979-07-26 20:31:31.210 ,4,1,0.,24.0,0.,24.0
1979-07-26 20:31:55.210 ,4,0,0.,24.0,0.,24.0
1979-07-26 20:32:19.210 ,3,1,0.,24.0,0.,24.0
1979-07-26 20:32:43.210 ,3,0,0.,24.0,0.,24.0
1979-07-26 20:33:07.210 ,2,1,0.,24.0,0.,24.0
1979-07-26 20:33:31.210 ,2,0,0.,24.0,0.,24.0
1979-07-26 20:33:55.210 ,1,1,0.,24.0,0.,24.0
1979-07-26 20:34:19.210 ,1,0,0.,24.0,0.,24.0
1979-07-26 20:34:43.210 ,0,1,0.,24.0,0.,24.0
1979-07-26 20:35:07.210 ,0,0,0.,24.0,0.,24.0
1979-07-26 20:35:31.210 ,0,1,0.,24.0,0.,24.0
1979-07-26 20:35:55.210 ,0,0,0.,24.0,0.,24.0
1979-07-26 20:36:19.210 ,1,1,0.,24.0,0.,24.0
1979-07-26 20:36:43.210 ,1,0,0.,24.0,0.,24.0
1979-07-26 20:37:07.210 ,2,1,0.,24.0,0.,24.0
1979-07-26 20:37:31.210 ,2,0,0.,24.0,0.,24.0
1979-07-26 20:37:55.210 ,3,1,0.,24.0,0.,24.0
1979-07-26 20:38:19.210 ,3,0,0.,24.0,0.,24.0
1979-07-26 20:38:43.210 ,4,1,0.,24.0,0.,24.0
1979-07-26 20:39:07.210 ,4,0,0.,24.0,0.,24.0
1979-07-26 20:39:31.210 ,5,1,0.,24.0,0.,24.0
1979-07-26 20:39:55.210 ,5,0,0.,24.0,0.,24.0
1979-07-26 20:40:19.210 ,6,1,0.,24.0,0.,24.0
1979-07-26 20:40:43.210 ,6,0,0.,24.0,0.,24.0
1979-07-26 20:41:07.210 ,7,1,0.,24.0,0.,24.0
1979-07-26 20:41:31.210 ,7,0,0.,24.0,0.,24.0
1979-07-26 20:41:55.210 ,7,1,0.,24.0,0.,24.0
1979-07-26 20:42:19.210 ,7,0,0.,24.0,0.,24.0
1979-07-26 20:42:43.210 ,6,1,0.,24.0,0.,24.0
1979-07-26 20:43:07.210 ,6,0,0.,24.0,0.,24.0
1979-07-26 20:43:31.210 ,5,1,0.,24.0,0.,24.0
1979-07-26 20:43:55.210 ,5,0,0.,24.0,0.,24.0
1979-07-26 20:44:19.210 ,4,1,0.,24.0,0.,24.0
1979-07-26 20:44:43.210 ,4,0,0.,24.0,0.,24.0
1979-07-26 20:45:07.210 ,3,1,0.,24.0,0.,24.0
1979-07-26 20:45:31.210 ,3,0,0.,24.0,0.,24.0
1979-07-26 20:45:55.210 ,2,1,0.,24.0,0.,24.0
1979-07-26 20:46:19.210 ,2,0,0.,24.0,0.,24.0
1979-07-26 20:46:43.210 ,1,1,0.,24.0,0.,24.0
1979-07-26 20:47:07.210 ,1,0,0.,24.0,0.,24.0
1979-07-26 20:47:31.210 ,0,1,0.,24.0,0.,24.0
1979-07-26 20:47:55.210 ,0,0,0.,24.0,0.,24.0
1979-07-26 20:48:19.210 ,0,1,0.,24.0,0.,24.0
1979-07-26 20:48:43.210 ,0,0,0.,24.0,0.,24.0
1979-07-26 20:49:07.210 ,1,1,0.,24.0,0.,24.0
1979-07-26 20:49:31.210 ,1,0,0.,24.0,0.,24.0
1979-07-26 20:49:55.210 ,2,1,0.,24.0,0.,24.0
1979-07-26 20:50:19.210 ,2,0,0.,24.0,0.,24.0
1979-07-26 20:50:43.210 ,3,1,0.,24.0,0.,24.0
1979-07-26 20:51:07.210 ,3,0,0.,24.0,0.,24.0
1979-07-26 20:51:31.210 ,4,1,0.,24.0,0.,24.0
1979-07-26 20:51:55.210 ,4,0,0.,24.0,0.,24.0
1979-07-26 20:52:19.200 ,5,1,0.,24.0,0.,24.0
1979-07-26 20:52:43.200 ,5,0,0.,24.0,0.,24.0
1979-07-26 20:53:07.200 ,6,1,0.,24.0,0.,24.0
1979-07-26 20:53:31.200 ,6,0,0.,24.0,0.,24.0
1979-07-26 20:53:55.200 ,7,1,0.,24.0,0.,24.0
1979-07-26 20:54:19.200 ,7,0,0.,24.0,0.,24.0
1979-07-26 20:54:43.200 ,7,1,0.,24.0,0.,24.0
1979-07-26 20:55:07.200 ,7,0,0.,24.0,0.,24.0
1979-07-26 20:55:31.200 ,6,1,0.,24.0,0.,24.0
1979-07-26 20:55:55.200 ,6,0,0.,24.0,0.,24.0
1979-07-26 20:56:19.200 ,5,1,0.,24.0,0.,24.0
1979-07-26 20:56:43.200 ,5,0,0.,24.0,0.,24.0
1979-07-26 20:57:07.200 ,4,1,0.,24.0,0.,24.0
1979-07-26 20:57:31.200 ,4,0,0.,24.0,0.,24.0
1979-07-26 20:57:55.200 ,3,1,0.,24.0,0.,24.0
1979-07-26 20:58:19.200 ,3,0,0.,24.0,0.,24.0
1979-07-26 20:58:43.200 ,2,1,0.,24.0,0.,24.0
1979-07-26 20:59:07.200 ,2,0,0.,24.0,0.,24.0
1979-07-26 20:59:31.200 ,1,1,0.,24.0,0.,24.0
1979-07-26 20:59:55.200 ,1,0,0.,24.0,0.,24.0
1979-07-26 21:00:19.200 ,0,1,0.,24.0,0.,24.0
